Simultaneous Nadir Overpasses (SNOs) Predictions

Prediction of SNOs near US between NOAA-19 and NPP Satellite Orbit:

Table of predicted SNOs near US for the next 10.0 days since TLE Epoch: 6/2/2012
Index Date (NOAA-19) Time (NOAA-19) NOAA-19 Lat,Lon Date (NPP) Time (NPP) NPP Lat,Lon Distance(km) Time Diff (sec)
1 06/08/2012 20:35:15 39.94,-113.15 06/08/2012 20:38:09 39.34,-115.85 240.13 174
2 06/09/2012 07:13:35 47.70, -75.46 06/09/2012 07:12:55 48.06, -77.59 163.97 40
3 06/09/2012 08:56:17 45.59,-101.84 06/09/2012 08:55:01 45.97,-103.81 158.73 76
4 06/09/2012 18:45:17 49.96, -88.83 06/09/2012 18:40:37 49.79, -89.68 63.19 280
5 06/09/2012 20:27:23 50.00,-114.37 06/09/2012 20:22:08 49.86,-115.08 52.95 315
6 06/10/2012 07:10:46 20.01, -81.33 06/10/2012 07:02:08 19.11, -81.64 105.76 518
